Location: Skalnate Pleso
(49.1889°N, 20.2450°E)
Time: 17:34:30
(UTC+01:00)

Cosmos 1125 Rocket - Pass Details

Date: 19 November 2019
Orbit: 758 x 779 km, 74.0° (Epoch: 11 December)

Event Time Altitude Azimuth Distance (km) Brightness Sun altitude
Rises 05:30:01 0° 201° (SSW) 3,243 6.7 -13.6°
Reaches altitude 10° 05:32:23 10° 201° (SSW) 2,317 5.9 -13.3°
Maximum altitude 05:37:40 89° 115° (ESE) 779 3.5 -12.4°
Drops below altitude 10° 05:42:57 10° 24° (NNE) 2,320 6.1 -11.6°
Sets 05:45:20 0° 24° (NNE) 3,248 6.8 -11.2°
